Location: Umburanas
(4.5000°S, 37.9667°W)
Time: 01:43:55
(UTC+00:00)

Cosmos 1862 - Visible Passes

Search period start: 28 February 2020 00:00
Search period end: 09 March 2020 00:00
Orbit: 537 x 557 km, 82.5° (Epoch: 25 February)

Date Brightness Start Highest point End Pass type
(mag) Time Alt. Az. Time Alt. Az. Time Alt. Az.
28 Feb 4.3 07:23:21 10° NNE 07:27:12 47° E 07:31:05 10° SSE visible
29 Feb 4.1 07:18:13 10° N 07:22:06 53° E 07:26:02 10° SSE visible
01 Mar 3.8 07:13:04 10° N 07:17:00 59° E 07:20:59 10° SSE visible
02 Mar 3.6 07:08:53 17° N 07:11:54 66° E 07:15:55 10° SSE visible
03 Mar 3.4 07:05:50 49° NNE 07:06:48 73° E 07:10:50 10° S visible
04 Mar 3.7 07:02:29 56° SSE 07:02:29 56° SSE 07:05:45 10° S visible
05 Mar 5.0 06:58:56 24° S 06:58:56 24° S 07:00:39 10° S visible
06 Mar 5.9 06:55:11 12° S 06:55:11 12° S 06:55:33 10° S visible
